Waarnemingen

Advertentie
Mijn weer
Oostende Airport, België (6407): temperatuur & dauwpunt: 30.11.2019 10:00:00 - 06.12.2019 10:00:00 (CET)Oostende Airport, België (6407): windsnelheid & windstoten: 30.11.2019 10:00:00 - 06.12.2019 10:00:00 (CET)Oostende Airport, België (6407): windrichting: 30.11.2019 10:00:00 - 06.12.2019 10:00:00 (CET)Oostende Airport, België (6407): luchtdruk: 30.11.2019 10:00:00 - 06.12.2019 10:00:00 (CET)Oostende Airport, België (6407): zicht: 30.11.2019 10:00:00 - 06.12.2019 10:00:00 (CET)
Datum & Tijd tt [°C] td [°C] ff [km/u] ff [kn] fx [km/u] fx [kn] dd ppp [hPa] vv [km]
06.12.2019 10:00:00 6,3 5,2 31 17 - - ZZW 1010,3 5
06.12.2019 09:00:00 5,9 4,6 29 16 43 23 ZZW 1010,8 5
06.12.2019 08:00:00 5,4 4,2 28 15 40 21 ZZW 1011,4 6
06.12.2019 07:00:00 5,1 3,8 26 14 - - ZZW 1011,9 6
06.12.2019 06:00:00 5,0 3,6 28 15 47 25 ZZW 1012,1 8
06.12.2019 05:00:00 5,0 3,4 29 16 50 27 ZZW 1012,7 8
06.12.2019 04:00:00 4,7 2,8 35 19 - - ZZW 1013,5 8
06.12.2019 03:00:00 4,7 2,8 34 18 50 27 ZZW 1013,8 8
06.12.2019 02:00:00 4,7 3,1 31 17 43 23 ZZW 1014,5 4,5
06.12.2019 01:00:00 3,8 2,3 28 15 - - ZZW 1015,4 4,5
06.12.2019 00:00:00 3,6 2,2 31 17 43 23 ZZW 1016,2 4,5
05.12.2019 23:00:00 3,4 2,0 26 14 42 23 ZZW 1017,0 4,5
05.12.2019 22:00:00 3,0 2,0 28 15 - - ZZW - 4,5
05.12.2019 21:00:00 2,8 1,6 24 13 36 19 Z 1017,9 3,5
05.12.2019 20:00:00 3,5 2,4 21 11 32 18 Z 1018,4 2,2
05.12.2019 19:00:00 3,3 2,4 21 11 - - Z 1018,5 1,6
05.12.2019 18:00:00 3,4 2,7 18 10 29 16 Z 1019,2 0,5
05.12.2019 17:00:00 3,2 2,6 18 10 29 16 ZZW 1019,7 0,3
05.12.2019 16:00:00 2,3 1,7 16 9 - - ZZW 1020,5 0,2
05.12.2019 15:00:00 1,9 1,2 21 11 29 16 ZZW 1020,7 0,3
05.12.2019 14:00:00 1,4 0,8 18 10 29 16 ZZW 1021,2 0,3
05.12.2019 13:00:00 0,8 0,1 16 9 - - ZZW 1021,7 0,2
05.12.2019 12:00:00 1,3 0,4 16 9 25 14 ZZW 1021,8 0,8
05.12.2019 11:00:00 0,8 -0,4 13 7 18 10 ZZW 1021,8 2,8
05.12.2019 10:00:00 -0,3 -1,4 13 7 - - ZZW 1022,0 2,0
05.12.2019 09:00:00 -0,8 -1,9 5 3 11 6 ZZW 1022,0 3,2
05.12.2019 08:00:00 -1,7 -2,8 8 4 11 6 ZW 1021,7 3,3
05.12.2019 07:00:00 -1,5 -2,8 4 2 - - - 1021,2 3,5
05.12.2019 06:00:00 -2,0 -3,1 8 4 11 6 ZZW 1020,9 3,5
05.12.2019 05:00:00 -2,1 -3,2 8 4 11 6 ZZW 1020,8 3,7
05.12.2019 04:00:00 -2,0 -3,1 5 3 - - ZZW 1021,0 3,5
05.12.2019 03:00:00 -3,5 -4,5 5 3 8 4 ZW 1021,3 3,5
05.12.2019 02:00:00 -3,3 -4,1 4 2 7 4 ZW 1020,9 3,5
05.12.2019 01:00:00 -2,1 -3,0 4 2 - - ZZO 1021,0 4,0
05.12.2019 00:00:00 -2,0 -2,9 4 2 7 4 - 1021,3 4,5
04.12.2019 23:00:00 -2,3 -3,5 2 1 7 4 - 1021,0 4,5
04.12.2019 22:00:00 -0,9 -1,7 5 3 - - ZW 1021,3 4,5
04.12.2019 21:00:00 -1,3 -2,1 4 2 7 4 ZO 1021,2 4,5
04.12.2019 20:00:00 0,4 -1,1 5 3 7 4 O 1021,2 4,5
04.12.2019 19:00:00 0,8 0,0 4 2 - - ZZO 1020,9 4,5
04.12.2019 18:00:00 1,5 0,0 8 4 18 10 O 1020,6 7
04.12.2019 17:00:00 3,7 1,1 13 7 18 10 ONO 1020,4 8
04.12.2019 16:00:00 5,4 1,4 9 5 - - ONO 1020,9 10
04.12.2019 15:00:00 6,4 1,2 4 2 7 4 - 1021,1 10
04.12.2019 14:00:00 6,4 1,8 5 3 11 6 Z 1021,6 10
04.12.2019 13:00:00 5,0 1,7 5 3 - - ZO 1022,0 10
04.12.2019 12:00:00 3,5 1,4 5 3 11 6 ZO 1022,7 9
04.12.2019 11:00:00 1,9 0,7 2 1 7 4 - 1023,0 6
04.12.2019 10:00:00 -0,4 -1,8 5 3 - - ZO 1022,9 2,5
04.12.2019 09:00:00 -2,2 -2,8 0 0 7 4 N 1022,8 1,3
04.12.2019 08:00:00 -1,7 -2,5 8 4 7 4 OZO 1022,7 2,5
04.12.2019 07:00:00 -2,0 -3,0 5 3 - - OZO 1022,5 3,0
04.12.2019 06:00:00 -0,7 -1,5 4 2 7 4 OZO 1022,9 2,0
04.12.2019 05:00:00 -1,2 -1,8 8 4 7 4 OZO 1023,3 2,6
04.12.2019 04:00:00 -0,7 -1,5 4 2 - - - 1024,0 4,0
04.12.2019 03:00:00 -0,3 -1,2 5 3 11 6 ZO 1024,5 4,0
04.12.2019 02:00:00 0,6 -0,6 8 4 11 6 Z 1024,9 5
04.12.2019 01:00:00 0,0 -0,7 5 3 - - Z 1025,3 4,5
04.12.2019 00:00:00 0,1 -0,9 8 4 11 6 Z 1025,7 4,8
03.12.2019 23:00:00 0,8 -0,3 5 3 11 6 Z 1026,0 4,5
03.12.2019 22:00:00 1,2 0,2 5 3 - - Z 1026,3 4,0
03.12.2019 21:00:00 2,0 0,8 8 4 11 6 Z 1026,5 3,6
03.12.2019 20:00:00 2,3 1,3 9 5 14 8 Z 1026,6 4,0
03.12.2019 19:00:00 2,6 1,6 9 5 - - Z 1026,9 3,2
03.12.2019 18:00:00 3,3 2,2 9 5 14 8 Z 1027,0 4,5
03.12.2019 17:00:00 4,6 3,4 9 5 14 8 Z 1027,2 5
03.12.2019 16:00:00 5,9 4,2 9 5 - - Z 1027,5 6
03.12.2019 15:00:00 6,5 4,5 13 7 22 12 ZZW 1027,6 8
03.12.2019 14:00:00 6,3 4,2 16 9 22 12 ZZW 1028,2 8
03.12.2019 13:00:00 5,4 3,7 13 7 - - ZZW 1028,7 6
03.12.2019 12:00:00 3,7 2,4 11 6 14 8 ZZW 1029,6 5
03.12.2019 11:00:00 1,9 0,7 9 5 14 8 ZZW 1029,9 3,8
03.12.2019 10:00:00 0,2 -0,6 5 3 - - ZZW 1029,9 3,3
03.12.2019 09:00:00 -1,1 -1,8 4 2 7 4 - 1030,2 3,2
03.12.2019 08:00:00 -0,4 -1,5 5 3 7 4 ZZW 1029,9 3,5
03.12.2019 07:00:00 -0,8 -1,8 5 3 - - ZZW 1029,7 3,5
03.12.2019 06:00:00 -1,2 -1,9 4 2 11 6 - 1029,8 5
03.12.2019 05:00:00 -1,1 -1,7 5 3 7 4 Z 1030,0 5
03.12.2019 04:00:00 -0,6 -1,5 2 1 - - - 1030,1 6
03.12.2019 03:00:00 -0,9 -1,6 5 3 7 4 ZZW 1030,4 7
03.12.2019 02:00:00 -0,8 -1,5 2 1 4 2 - 1030,4 7
03.12.2019 01:00:00 -0,7 -1,6 4 2 - - - 1030,9 9
03.12.2019 00:00:00 0,2 -0,8 5 3 7 4 ZZW 1030,9 10
02.12.2019 23:00:00 0,4 -0,4 4 2 7 4 ZW 1030,7 10
02.12.2019 22:00:00 1,2 0,6 4 2 - - - 1030,7 10
02.12.2019 21:00:00 5,1 2,4 5 3 11 6 NW 1030,6 10
02.12.2019 20:00:00 5,1 2,6 8 4 14 8 NW 1030,5 10
02.12.2019 19:00:00 5,7 2,8 11 6 - - NNW 1030,3 10
02.12.2019 18:00:00 5,9 2,8 9 5 18 10 NNW 1029,9 10
02.12.2019 17:00:00 6,5 3,5 11 6 22 12 NNW 1029,8 10
02.12.2019 16:00:00 7,4 3,8 16 9 - - NNW 1029,8 10
02.12.2019 15:00:00 8,1 3,8 18 10 25 14 NNW 1029,7 10
02.12.2019 14:00:00 8,5 4,6 16 9 25 14 NNW 1029,7 10
02.12.2019 13:00:00 8,3 4,2 18 10 - - NNW 1029,7 10
02.12.2019 12:00:00 8,1 4,5 22 12 32 18 NNW 1029,8 10
02.12.2019 11:00:00 8,1 4,7 18 10 29 16 NNW 1029,4 18
02.12.2019 10:00:00 6,8 4,4 11 6 - - N 1029,0 10
02.12.2019 09:00:00 6,9 3,5 16 9 32 18 N 1028,3 10
02.12.2019 08:00:00 6,5 4,0 15 8 25 14 NNW 1027,9 10
02.12.2019 07:00:00 7,1 2,7 18 10 - - N 1027,3 10
02.12.2019 06:00:00 1,0 -0,1 5 3 7 4 W 1027,2 10
02.12.2019 05:00:00 1,5 0,6 4 2 7 4 - 1026,8 10
02.12.2019 04:00:00 4,7 2,5 5 3 - - N 1026,5 10
02.12.2019 03:00:00 3,1 1,1 8 4 11 6 NNW 1026,2 10
02.12.2019 02:00:00 0,2 -0,8 4 2 7 4 N 1025,9 10
02.12.2019 01:00:00 0,9 -0,4 8 4 - - NNW 1025,9 10
02.12.2019 00:00:00 2,6 1,0 5 3 7 4 O 1025,6 10
01.12.2019 23:00:00 2,2 0,3 5 3 11 6 N 1025,3 10
01.12.2019 22:00:00 2,2 0,3 8 4 - - ONO 1024,6 10
01.12.2019 21:00:00 3,0 0,4 9 5 14 8 ONO 1023,9 10
01.12.2019 20:00:00 3,0 0,4 9 5 22 12 ONO 1023,7 10
01.12.2019 19:00:00 4,1 0,3 15 8 - - ONO 1023,2 10
01.12.2019 18:00:00 4,5 -0,2 21 11 32 18 NO 1022,7 10
01.12.2019 17:00:00 4,3 -0,5 18 10 32 18 NO 1021,9 10
01.12.2019 16:00:00 4,9 -0,2 21 11 - - NO 1021,2 10
01.12.2019 15:00:00 5,6 0,2 22 12 36 19 NO 1020,9 10
01.12.2019 14:00:00 5,4 0,0 24 13 40 21 ONO 1020,7 10
01.12.2019 13:00:00 5,2 0,3 21 11 - - NO 1021,0 10
01.12.2019 12:00:00 4,5 0,3 22 12 36 19 ONO 1021,1 10
01.12.2019 11:00:00 4,4 0,4 24 13 36 19 ONO 1021,1 10
01.12.2019 10:00:00 3,7 0,5 21 11 - - NO 1020,6 10
01.12.2019 09:00:00 3,3 -0,1 22 12 36 19 ONO 1019,8 10
01.12.2019 08:00:00 3,2 0,3 24 13 36 19 ONO 1019,1 10
01.12.2019 07:00:00 3,2 0,4 22 12 - - ONO 1019,0 10
01.12.2019 06:00:00 3,1 0,3 24 13 32 18 ONO 1019,1 10
01.12.2019 05:00:00 2,6 0,4 22 12 29 16 ONO 1019,6 10
01.12.2019 04:00:00 3,0 0,6 21 11 - - ONO 1020,4 10
01.12.2019 03:00:00 3,1 1,1 16 9 25 14 ONO 1020,9 10
01.12.2019 02:00:00 2,8 0,4 18 10 25 14 ONO 1020,8 10
01.12.2019 01:00:00 2,6 0,7 18 10 - - ONO 1021,1 10
01.12.2019 00:00:00 2,6 0,7 16 9 25 14 ONO 1020,9 10
30.11.2019 23:00:00 2,5 0,6 11 6 22 12 ONO 1021,7 9
30.11.2019 22:00:00 3,1 1,0 15 8 - - O 1021,7 10
30.11.2019 21:00:00 3,5 1,5 15 8 22 12 O 1022,5 10
30.11.2019 20:00:00 3,2 1,2 13 7 18 10 O 1022,6 10
30.11.2019 19:00:00 2,9 1,0 13 7 - - ONO 1022,5 10
30.11.2019 18:00:00 2,9 1,0 11 6 14 8 O 1022,3 10
30.11.2019 17:00:00 3,3 1,1 11 6 18 10 O 1022,3 10
30.11.2019 16:00:00 5,4 1,8 11 6 - - O 1022,4 10
30.11.2019 15:00:00 6,9 2,6 11 6 18 10 O 1022,9 10
30.11.2019 14:00:00 7,0 3,3 13 7 18 10 OZO 1023,3 10
30.11.2019 13:00:00 6,7 3,7 11 6 - - OZO 1023,5 10
30.11.2019 12:00:00 6,0 3,3 5 3 11 6 ZZO 1024,0 10
30.11.2019 11:00:00 3,7 2,0 4 2 7 4 - 1024,2 10
30.11.2019 10:00:00 1,1 0,2 4 2 - - - 1023,7 9

tt = temperatuur
td = dauwpunt
ff = windsnelheid
fx = windstoten
dd = windrichting
ppp = luchtdruk
vv = zicht

Weerstations in de omgeving